Wind_Speed
33 30 28 27 28 30 22 19 23 15 18 13 16 15 15 14 13 12 10 8 8 8 10 12 14 15 14 11 10 12 14 13 11 16 13 8 8 12 13 12 13 12 11
34 30 31 29 29 29 28 22 20 25 15 23 15 17 15 16 16 15 14 12 15 15 15 16 18 17 16 16 14 17 15 13 12 13 15 16 18 15 13 12 10 10 10
34 32 29 30 30 30 30 27 24 24 23 19 21 20 20 19 18 18 17 17 17 17 18 20 21 20 20 18 16 16 17 17 19 19 14 17 16 14 17 12 12 12 14
33 33 30 31 31 31 30 32 28 27 26 25 24 23 23 22 21 21 20 21 22 21 21 23 24 24 23 21 19 21 20 20 20 19 16 20 20 17 15 12 13 14 14
34 33 34 31 32 31 32 31 33 30 29 28 27 25 24 25 24 24 23 23 23 24 24 25 26 26 27 27 23 22 21 22 19 18 17 20 22 18 15 10 8 13 9
33 35 34 35 33 34 33 34 32 34 33 30 29 28 27 26 25 26 26 25 25 27 27 27 28 29 30 31 33 34 34 27 20 18 17 17 20 15 16 11 8 3 3
31 33 35 36 36 35 35 32 35 33 33 34 32 31 30 30 30 29 27 30 30 28 27 26 27 26 27 28 24 25 31 33 34 30 25 26 21 16 13 12 5 7 9
29 31 34 36 36 38 36 35 34 35 35 33 34 33 32 32 32 32 33 29 30 34 35 33 34 35 36 29 27 28 27 29 32 30 34 37 24 19 13 10 5 15 15
33 31 31 34 34 33 35 36 35 34 32 34 34 33 35 34 35 35 34 33 34 36 39 37 36 37 39 34 32 31 30 28 27 23 24 24 25 19 16 10 7 13 9
27 31 31 32 36 36 37 37 36 34 34 31 33 35 35 34 34 35 35 34 28 28 31 34 35 36 35 35 37 32 27 24 23 20 22 24 26 22 22 16 15 16 11
28 28 33 33 35 35 35 34 34 33 32 34 33 34 35 37 37 35 36 37 31 29 29 29 29 31 31 22 25 36 32 23 18 18 20 24 23 21 20 17 17 20 19
28 28 28 34 32 33 34 33 33 33 33 33 32 33 32 35 37 38 41 40 38 32 31 30 28 29 30 24 21 14 25 26 18 19 22 23 23 23 20 18 18 20 23
18 25 29 26 31 32 30 33 32 33 32 31 30 30 29 33 32 38 41 40 41 43 37 37 34 34 32 29 24 18 18 20 20 18 22 24 27 21 15 15 16 20 22
17 17 19 23 24 27 30 29 31 30 30 30 27 28 28 30 28 31 37 43 44 43 45 42 39 37 34 29 23 16 17 18 17 18 19 19 17 18 18 18 17 13 18
21 12 15 17 21 23 27 28 29 31 31 28 29 30 24 27 30 36 35 32 41 44 43 28 23 20 13 13 14 15 16 17 20 20 18 19 18 21 21 19 19 16 14
21 16 11 14 17 20 22 24 31 34 30 39 33 27 28 37 32 25 37 41 36 35 27 24 21 20 18 15 14 16 18 14 17 17 17 19 20 23 21 18 16 16 16
20 17 17 18 18 24 26 24 22 28 41 37 30 38 40 34 24 12 13 15 16 30 23 21 20 17 13 20 16 14 18 20 17 19 20 20 19 23 19 18 16 19 15
20 19 17 16 20 22 15 27 25 21 20 26 38 44 39 40 40 38 30 11 9 15 16 15 14 14 16 18 19 16 15 15 17 19 20 19 22 24 21 18 15 19 16
21 21 19 17 16 19 21 27 16 9 12 3 9 13 36 45 35 29 19 23 21 17 16 16 18 21 22 18 15 14 17 15 17 20 20 21 23 24 22 19 17 18 14
20 25 24 19 17 18 21 23 24 25 22 20 21 23 16 10 8 16 21 17 18 21 20 18 19 21 20 16 16 15 13 15 17 19 20 21 23 25 23 23 20 16 14
16 17 20 21 21 18 19 22 22 20 19 19 19 27 25 22 25 28 29 18 12 14 15 13 7 7 10 8 11 11 11 13 16 18 19 20 22 24 25 23 21 16 15
18 17 16 17 15 18 16 17 24 22 19 18 19 23 24 20 22 25 27 28 24 24 22 18 14 11 5 5 8 8 10 13 14 16 18 19 22 24 25 24 20 14 14
16 19 17 16 14 14 12 19 23 21 17 17 18 19 19 20 22 22 19 9 15 15 14 16 12 8 8 8 8 5 6 9 11 14 18 19 21 25 26 20 15 13 11
13 12 18 16 19 16 15 14 14 16 14 14 14 17 20 25 24 23 21 20 15 11 14 14 13 12 9 6 5 5 6 8 10 12 14 18 23 27 22 17 16 15 16
11 11 7 12 15 19 21 19 21 19 17 11 8 15 17 20 22 21 22 20 17 14 15 14 15 14 13 11 5 9 10 7 13 14 14 19 23 24 19 17 14 14 14
9 10 10 11 12 6 10 16 16 18 17 14 14 12 11 13 16 20 16 22 21 18 18 18 17 17 18 18 14 7 10 14 14 12 13 19 18 18 19 13 14 13 12
Wind_Direction
193 196 198 201 207 214 209 219 219 223 219 189 191 199 199 200 202 212 224 193 229 240 245 248 261 271 269 263 276 259 249 253 259 276 274 298 283 289 293 294 293 290 282
193 198 199 202 204 209 216 213 212 221 220 218 206 209 211 210 211 214 223 233 239 241 253 256 260 267 267 273 274 264 268 258 259 269 271 275 284 280 277 296 302 298 294
191 197 200 202 202 206 211 212 213 216 220 216 218 219 219 220 220 223 227 236 245 250 255 258 260 262 260 256 257 264 269 271 262 262 262 278 269 272 259 278 291 292 290
191 195 203 204 204 206 209 211 212 212 216 223 224 225 224 226 229 230 233 239 244 251 257 261 266 265 265 262 253 253 262 261 262 259 249 261 264 264 240 255 266 280 306
191 198 202 205 208 208 210 212 213 214 216 220 226 230 232 230 230 233 236 241 246 252 256 260 264 268 268 263 256 252 257 252 237 249 253 254 255 237 228 250 238 285 317
196 200 203 205 207 210 212 211 213 215 217 220 222 227 231 234 236 239 237 240 247 251 256 260 264 267 269 270 267 263 253 248 239 244 253 248 258 254 240 263 252 259 27
205 203 203 204 206 210 213 212 211 214 213 216 220 223 228 233 236 241 245 241 245 251 258 264 270 271 275 279 285 281 263 253 254 253 254 252 260 260 241 233 263 258 244
210 210 205 206 209 210 213 214 216 214 215 214 217 221 225 231 234 238 241 247 249 254 259 261 264 270 271 273 275 274 275 260 247 246 256 260 253 256 243 242 275 270 269
218 214 213 208 213 215 216 218 218 220 218 220 221 221 223 229 234 238 241 244 248 251 257 261 262 266 274 273 267 264 262 263 261 251 254 259 249 241 236 234 233 265 303
217 220 216 217 214 217 218 218 221 223 226 225 224 225 227 231 235 236 237 240 239 244 251 258 263 265 274 274 266 256 258 258 254 243 241 241 242 241 242 234 244 261 271
224 217 220 219 223 220 222 223 223 223 225 227 230 229 228 230 231 235 237 236 235 240 245 252 256 261 264 271 270 257 251 256 254 250 244 237 236 232 232 235 241 247 245
214 222 217 220 221 225 222 224 225 224 225 229 230 233 236 233 233 234 235 234 234 233 240 249 253 256 266 277 288 272 250 249 247 241 232 229 229 225 232 239 239 249 258
224 213 224 222 221 223 225 222 223 223 224 227 228 234 233 234 235 235 235 236 238 238 240 248 252 258 267 280 291 283 250 241 244 238 237 239 242 236 233 230 238 260 267
321 233 226 229 224 223 223 229 223 223 223 225 229 232 234 237 235 233 236 237 240 241 244 247 250 260 268 268 272 268 252 241 245 245 243 245 244 221 215 221 234 232 225
333 276 236 232 230 226 224 226 230 227 226 226 227 232 238 231 232 232 233 227 235 238 237 236 238 250 236 243 260 249 244 252 246 246 245 234 228 213 215 223 232 243 237
323 331 300 257 242 235 233 232 236 240 233 231 237 231 236 241 253 243 237 236 231 235 218 216 220 214 215 210 224 225 224 242 241 237 228 228 224 210 212 221 228 231 238
339 338 328 302 299 231 220 224 232 238 242 250 246 250 253 255 257 259 250 243 227 207 205 208 218 221 229 203 213 237 222 224 236 229 231 227 221 210 208 217 229 222 245
357 355 355 352 337 335 253 215 225 222 222 232 239 239 241 246 252 252 245 230 195 206 215 227 236 243 245 236 205 226 222 204 224 232 231 227 218 205 202 212 221 222 241
15 12 12 11 5 4 10 31 353 277 255 250 236 260 243 242 245 246 237 231 232 233 234 237 243 241 244 244 219 220 219 232 240 233 227 222 216 204 206 209 224 233 239
15 18 26 21 20 28 35 39 36 23 32 33 42 22 5 12 336 283 264 260 244 239 240 246 251 254 226 201 198 209 216 234 234 228 225 220 214 210 206 207 223 231 218
5 18 22 31 20 29 45 51 42 38 31 29 24 31 57 57 50 46 36 19 330 288 252 257 271 157 154 204 220 230 239 243 236 231 224 217 207 200 207 212 224 229 240
4 8 27 19 40 37 35 57 63 44 29 26 20 32 52 53 59 54 51 24 13 34 30 33 31 24 19 231 247 250 241 235 236 232 221 213 204 200 203 216 229 218 221
12 14 13 16 26 44 55 54 57 53 36 25 29 33 43 49 54 51 49 64 23 3 3 3 12 349 348 319 297 276 239 244 247 235 221 210 200 198 205 217 201 215 226
15 26 28 26 23 22 30 58 80 70 57 39 17 34 43 49 50 49 45 39 59 1 17 24 25 12 337 317 293 281 266 257 251 237 226 211 197 195 205 194 214 210 166
11 7 26 31 36 30 18 24 31 30 52 33 38 36 39 42 47 46 44 37 42 37 27 33 26 19 7 1 335 300 292 276 241 254 237 202 204 199 205 191 202 215 162
12 11 16 16 15 32 55 41 28 30 32 36 7 59 42 50 42 34 38 43 40 41 33 23 31 35 31 20 360 335 306 294 286 252 219 197 208 214 197 208 205 186 178
Height
787 792 797 802 807 810 812 815 818 820 822 825 826 829 831 833 834 835 836 836 835 835 835 835 834 834 834 836 837 836 835 835 833 831 832 831 828 826 826 825 825 825 821
780 786 791 797 802 805 808 811 814 816 820 822 825 826 828 829 831 831 832 833 833 833 832 832 831 831 831 832 833 832 832 831 830 827 827 826 824 821 821 822 822 819 819
774 781 786 791 795 799 803 806 809 812 815 818 821 823 825 826 827 828 829 829 829 829 829 828 827 827 828 829 830 830 829 828 828 825 823 822 820 818 818 819 820 818 814
769 774 779 785 789 793 797 800 804 807 811 813 816 818 820 822 823 824 825 825 825 825 825 824 824 824 824 824 824 823 824 824 823 820 820 817 815 813 814 816 816 813 813
761 767 771 778 784 788 791 794 797 801 804 807 811 813 815 816 817 819 820 820 820 820 820 819 819 819 818 819 819 818 818 817 816 815 815 812 810 810 810 811 810 811 809
754 758 764 771 776 780 784 788 791 794 797 801 804 807 809 810 812 813 815 816 816 816 815 814 813 813 812 812 811 810 809 809 809 811 809 807 805 804 804 805 805 803 805
746 751 757 762 767 772 777 781 783 786 789 792 795 799 800 802 804 807 809 809 810 810 810 809 808 807 806 804 803 802 800 800 801 803 802 801 800 800 800 800 801 803 803
740 744 749 754 759 763 768 771 775 778 781 783 786 789 792 793 796 798 801 802 803 803 803 802 801 799 797 799 798 796 792 790 791 793 793 792 794 796 797 798 801 803 800
732 736 742 748 753 758 761 764 767 772 774 776 778 780 782 783 786 789 793 794 794 794 795 794 793 791 788 790 788 786 785 783 781 784 785 786 789 790 793 795 797 800 800
725 731 736 740 744 747 751 755 760 764 768 770 771 772 774 776 778 781 784 786 786 787 786 785 784 782 780 779 779 779 777 777 777 778 780 781 782 784 787 791 794 797 799
720 723 728 732 736 740 745 749 753 757 759 761 763 764 765 765 768 770 773 776 777 778 777 776 775 774 772 770 770 771 769 771 771 772 773 775 777 779 782 786 788 789 792
712 716 719 723 728 733 736 741 745 748 751 752 754 755 756 757 758 759 761 763 765 767 767 767 767 765 763 763 763 763 763 766 766 767 768 769 771 774 778 781 782 784 785
705 708 712 716 720 724 728 731 735 738 740 742 744 745 745 748 749 749 750 752 754 755 756 756 758 758 758 757 757 758 759 760 761 762 762 763 764 769 773 776 779 780 781
704 705 708 711 714 717 720 723 725 727 729 731 734 735 737 739 738 740 740 742 744 745 745 747 749 750 752 752 753 754 755 756 756 758 759 759 762 765 768 771 774 774 774
708 705 706 707 709 711 713 714 716 717 720 722 723 726 727 727 726 727 729 728 730 731 734 739 743 743 744 745 746 748 750 751 752 753 755 755 758 761 763 767 769 772 771
712 708 705 705 705 707 708 709 710 710 712 714 716 717 719 719 717 718 718 718 718 721 727 730 732 735 737 738 740 741 742 744 745 748 749 751 753 756 759 763 766 767 767
715 711 706 705 703 699 700 701 701 702 704 704 708 708 710 712 712 712 712 712 712 716 720 722 725 726 727 729 733 735 734 735 738 741 744 746 749 752 756 759 761 763 764
716 711 707 703 701 695 690 689 690 689 692 693 694 697 698 700 701 704 708 712 715 717 718 719 720 721 722 723 724 727 729 730 733 736 739 742 745 747 752 754 757 759 760
720 715 709 705 703 698 696 691 689 685 682 684 686 690 691 693 696 699 704 708 711 713 715 715 715 716 717 717 718 722 723 724 727 730 733 737 740 744 748 752 754 756 757
723 719 713 710 707 704 699 693 691 697 694 696 696 695 695 699 704 704 705 709 708 707 708 709 709 710 714 713 714 715 717 720 722 724 728 731 735 740 743 747 750 752 753
726 723 719 716 713 710 705 701 703 705 704 704 703 703 699 703 707 704 706 709 708 708 708 709 708 706 709 712 711 712 713 716 719 721 724 726 729 734 740 744 746 748 748
733 727 726 723 720 718 717 709 703 709 713 712 708 707 705 708 708 707 703 709 712 707 708 708 709 709 709 712 710 710 710 713 716 719 721 723 726 730 735 739 743 744 745
739 736 731 726 725 722 719 715 706 710 719 718 712 712 711 711 712 712 714 708 712 716 713 715 711 712 712 713 711 710 711 712 713 716 718 721 724 727 731 736 739 741 743
741 738 736 734 732 730 727 723 720 723 720 718 723 715 712 707 710 715 717 717 710 720 715 712 713 714 713 712 711 710 711 714 714 715 717 719 722 725 730 732 735 737 739
743 740 737 736 735 733 730 725 722 719 719 728 729 721 716 715 714 713 715 721 718 717 717 717 716 711 708 708 706 709 711 713 714 715 715 718 721 724 727 730 733 736 738
744 743 739 737 736 734 733 733 732 728 726 724 733 724 725 721 718 721 723 716 718 716 713 714 708 705 704 704 705 707 711 713 713 714 715 717 722 724 725 727 729 732 736